LPP3183 SCIE-SCTE

Flight info

Callsign LPP3183
Flight time 0h 46m
Altitude 35000
Route PANEX3N PANEX UQ809 VLD UV200 ISUDO DCT SARTO SARTO2A
Aircraft B763/H-SDE3FGHIM3RWXY/LB1

Departure

Time 2026-04-21 14:48
Airport Carriel Sur International Airport (SCIE)

Arrival

Time 2026-04-21 15:35
Airport El Tepual International Airport (SCTE)
Time Latitude Longitude Altitude Speed Heading
2026-04-21 14:13 -36.77618 -73.06023 64 ft 0 kts 167°
2026-04-21 14:34 -36.77616 -73.06023 62 ft 1 kts 167°
2026-04-21 14:34 -36.77601 -73.06027 61 ft 2 kts 167°
2026-04-21 14:35 -36.77586 -73.06032 60 ft 2 kts 171°
2026-04-21 14:35 -36.77572 -73.06030 60 ft 2 kts 206°
2026-04-21 14:35 -36.77560 -73.06019 61 ft 2 kts 235°
2026-04-21 14:35 -36.77554 -73.06002 62 ft 1 kts 265°
2026-04-21 14:36 -36.77554 -73.05994 62 ft 1 kts 271°
2026-04-21 14:41 -36.77554 -73.05998 62 ft 2 kts 271°
2026-04-21 14:41 -36.77550 -73.06029 62 ft 4 kts 286°
2026-04-21 14:41 -36.77531 -73.06088 62 ft 8 kts 294°
2026-04-21 14:42 -36.77507 -73.06152 61 ft 8 kts 295°
2026-04-21 14:42 -36.77474 -73.06180 61 ft 5 kts 359°
2026-04-21 14:42 -36.77435 -73.06163 61 ft 7 kts 26°
2026-04-21 14:42 -36.77379 -73.06128 61 ft 10 kts 27°
2026-04-21 14:43 -36.77304 -73.06082 59 ft 13 kts 24°
2026-04-21 14:43 -36.77212 -73.06031 58 ft 14 kts 24°
2026-04-21 14:43 -36.77125 -73.05982 57 ft 14 kts 25°
2026-04-21 14:43 -36.77024 -73.05920 55 ft 16 kts 26°
2026-04-21 14:44 -36.76948 -73.05881 53 ft 11 kts 21°
2026-04-21 14:44 -36.76876 -73.05837 52 ft 12 kts 26°
2026-04-21 14:44 -36.76788 -73.05785 51 ft 16 kts 22°
2026-04-21 14:44 -36.76674 -73.05720 51 ft 18 kts 25°
2026-04-21 14:45 -36.76551 -73.05646 49 ft 20 kts 26°
2026-04-21 14:45 -36.76423 -73.05578 48 ft 19 kts
2026-04-21 14:45 -36.76348 -73.05620 48 ft 7 kts 300°
2026-04-21 14:45 -36.76313 -73.05697 48 ft 18 kts 299°
2026-04-21 14:46 -36.76239 -73.05714 48 ft 12 kts 27°
2026-04-21 14:46 -36.76170 -73.05660 48 ft 10 kts 55°
2026-04-21 14:46 -36.76144 -73.05606 48 ft 5 kts 43°
2026-04-21 14:46 -36.76106 -73.05612 48 ft 6 kts 323°
2026-04-21 14:47 -36.76102 -73.05634 48 ft 2 kts 261°
2026-04-21 14:47 -36.76105 -73.05640 48 ft 0 kts 232°
2026-04-21 14:47 -36.76110 -73.05643 48 ft 2 kts 207°
2026-04-21 14:47 -36.76334 -73.05774 48 ft 85 kts 204°
2026-04-21 14:48 -36.77173 -73.06259 184 ft 169 kts 204°
2026-04-21 14:48 -36.78415 -73.06985 542 ft 228 kts 205°
2026-04-21 14:48 -36.80043 -73.07554 1539 ft 253 kts 191°
2026-04-21 14:48 -36.81633 -73.07805 2906 ft 237 kts 183°
2026-04-21 14:49 -36.83367 -73.07870 3402 ft 257 kts 180°
2026-04-21 14:49 -36.85141 -73.07867 4362 ft 259 kts 179°
2026-04-21 14:49 -36.86961 -73.07828 5156 ft 268 kts 179°
2026-04-21 14:49 -36.88836 -73.07765 6065 ft 272 kts 178°
2026-04-21 14:50 -36.90107 -73.07716 6650 ft 276 kts 178°
2026-04-21 14:50 -36.92682 -73.07604 7481 ft 286 kts 178°
2026-04-21 14:50 -36.94659 -73.07513 8417 ft 288 kts 178°
2026-04-21 14:50 -36.96691 -73.07416 9225 ft 296 kts 179°
2026-04-21 14:51 -36.98748 -73.07319 10070 ft 300 kts 179°
2026-04-21 14:51 -37.00865 -73.07217 10730 ft 313 kts 179°
2026-04-21 14:51 -37.03139 -73.07110 10872 ft 344 kts 179°
2026-04-21 14:51 -37.05673 -73.06988 11070 ft 375 kts 179°
2026-04-21 14:52 -37.08305 -73.06860 11867 ft 386 kts 179°
2026-04-21 14:52 -37.10995 -73.06729 12744 ft 393 kts 179°
2026-04-21 14:52 -37.13726 -73.06596 13567 ft 399 kts 179°
2026-04-21 14:52 -37.16508 -73.06461 14490 ft 403 kts 179°
2026-04-21 14:53 -37.19338 -73.06325 15330 ft 408 kts 179°
2026-04-21 14:53 -37.22190 -73.06186 16139 ft 413 kts 179°
2026-04-21 14:53 -37.25047 -73.06048 16955 ft 417 kts 179°
2026-04-21 14:53 -37.27976 -73.05905 17702 ft 422 kts 179°
2026-04-21 14:54 -37.30944 -73.05761 18506 ft 426 kts 179°
2026-04-21 14:54 -37.33910 -73.05658 19186 ft 432 kts 182°
2026-04-21 14:54 -37.36909 -73.05898 19863 ft 436 kts 185°
2026-04-21 14:54 -37.39956 -73.06136 20613 ft 440 kts 185°
2026-04-21 14:55 -37.43008 -73.06400 21281 ft 445 kts 185°
2026-04-21 14:55 -37.46118 -73.06661 21924 ft 449 kts 185°
2026-04-21 14:55 -37.49257 -73.06931 22521 ft 454 kts 185°
2026-04-21 14:55 -37.52449 -73.07206 23124 ft 458 kts 185°
2026-04-21 14:56 -37.55647 -73.07482 23686 ft 463 kts 185°
2026-04-21 14:56 -37.58886 -73.07763 24174 ft 469 kts 185°
2026-04-21 14:56 -37.62139 -73.08045 24749 ft 472 kts 185°
2026-04-21 14:56 -37.65431 -73.08330 25240 ft 476 kts 185°
2026-04-21 14:57 -37.68771 -73.08621 25741 ft 480 kts 185°
2026-04-21 14:57 -37.72100 -73.08910 26235 ft 484 kts 185°
2026-04-21 14:57 -37.75494 -73.09205 26679 ft 488 kts 185°
2026-04-21 14:57 -37.78894 -73.09344 27112 ft 492 kts 180°
2026-04-21 14:58 -37.82330 -73.09274 27512 ft 496 kts 181°
2026-04-21 14:58 -37.85770 -73.09247 27907 ft 500 kts 180°
2026-04-21 14:58 -37.89279 -73.09216 28304 ft 504 kts 181°
2026-04-21 14:58 -37.92771 -73.09187 28667 ft 508 kts 181°
2026-04-21 14:59 -37.96354 -73.09158 29083 ft 510 kts 181°
2026-04-21 14:59 -37.99903 -73.09132 29432 ft 514 kts 181°
2026-04-21 14:59 -38.03474 -73.09103 29791 ft 516 kts 181°
2026-04-21 14:59 -38.07061 -73.09076 30256 ft 516 kts 181°
2026-04-21 15:00 -38.10688 -73.09048 30828 ft 513 kts 181°
2026-04-21 15:00 -38.14227 -73.09022 31367 ft 510 kts 181°
2026-04-21 15:00 -38.17767 -73.08995 31834 ft 508 kts 181°
2026-04-21 15:00 -38.21312 -73.08968 32255 ft 508 kts 181°
2026-04-21 15:01 -38.24866 -73.08941 32694 ft 507 kts 182°
2026-04-21 15:01 -38.28349 -73.08914 33089 ft 506 kts 182°
2026-04-21 15:01 -38.31855 -73.08888 33499 ft 505 kts 182°
2026-04-21 15:01 -38.35360 -73.08862 33881 ft 504 kts 182°
2026-04-21 15:02 -38.38926 -73.08833 34287 ft 503 kts 182°
2026-04-21 15:02 -38.42432 -73.08807 34613 ft 503 kts 182°
2026-04-21 15:02 -38.45932 -73.08781 34940 ft 502 kts 182°
2026-04-21 15:02 -38.49397 -73.08754 35183 ft 498 kts 182°
2026-04-21 15:03 -38.52891 -73.08726 35170 ft 498 kts 182°
2026-04-21 15:03 -38.59800 -73.08672 35183 ft 499 kts 182°
2026-04-21 15:04 -38.66804 -73.08615 35191 ft 500 kts 183°
2026-04-21 15:04 -38.73736 -73.08559 35193 ft 499 kts 182°
2026-04-21 15:05 -38.80688 -73.08503 35193 ft 499 kts 182°
2026-04-21 15:05 -38.91084 -73.08419 35196 ft 501 kts 183°
2026-04-21 15:06 -38.98047 -73.08361 35199 ft 499 kts 183°
2026-04-21 15:06 -39.05018 -73.08306 35197 ft 500 kts 183°
2026-04-21 15:07 -39.11969 -73.08249 35191 ft 501 kts 183°
2026-04-21 15:07 -39.18928 -73.08192 35188 ft 502 kts 183°
2026-04-21 15:08 -39.25903 -73.08141 35190 ft 500 kts 184°
2026-04-21 15:08 -39.32853 -73.08212 35192 ft 501 kts 184°
2026-04-21 15:09 -39.39834 -73.08282 35192 ft 502 kts 184°
2026-04-21 15:09 -39.46807 -73.08351 35192 ft 500 kts 184°
2026-04-21 15:10 -39.53694 -73.08419 34830 ft 493 kts 184°
2026-04-21 15:10 -39.57120 -73.08454 34268 ft 489 kts 184°
2026-04-21 15:10 -39.60525 -73.08488 33597 ft 487 kts 184°
2026-04-21 15:11 -39.63896 -73.08523 32900 ft 487 kts 184°
2026-04-21 15:11 -39.67273 -73.08556 32440 ft 484 kts 184°
2026-04-21 15:11 -39.70659 -73.08569 31996 ft 489 kts 184°
2026-04-21 15:11 -39.74049 -73.08584 31432 ft 494 kts 184°
2026-04-21 15:12 -39.77487 -73.08596 30867 ft 495 kts 184°
2026-04-21 15:12 -39.80905 -73.08609 30326 ft 495 kts 184°
2026-04-21 15:12 -39.84380 -73.08621 29768 ft 496 kts 184°
2026-04-21 15:12 -39.87804 -73.08635 29231 ft 494 kts 183°
2026-04-21 15:13 -39.90085 -73.08643 28876 ft 491 kts 183°
2026-04-21 15:13 -39.94643 -73.08658 28181 ft 484 kts 183°
2026-04-21 15:13 -39.97971 -73.08671 27667 ft 481 kts 183°
2026-04-21 15:13 -40.01329 -73.08683 27153 ft 479 kts 183°
2026-04-21 15:14 -40.04637 -73.08697 26645 ft 476 kts 183°
2026-04-21 15:14 -40.07977 -73.08709 26143 ft 472 kts 183°
2026-04-21 15:14 -40.11206 -73.08720 25665 ft 467 kts 183°
2026-04-21 15:14 -40.14470 -73.08733 25162 ft 463 kts 183°
2026-04-21 15:15 -40.17665 -73.08745 24675 ft 458 kts 182°
2026-04-21 15:15 -40.20826 -73.08758 24207 ft 455 kts 182°
2026-04-21 15:15 -40.23967 -73.08768 23735 ft 452 kts 182°
2026-04-21 15:15 -40.27112 -73.08471 23235 ft 453 kts 172°
2026-04-21 15:16 -40.30193 -73.07731 22777 ft 450 kts 171°
2026-04-21 15:16 -40.33242 -73.07005 22294 ft 445 kts 171°
2026-04-21 15:16 -40.36266 -73.06259 21852 ft 440 kts 171°
2026-04-21 15:16 -40.39250 -73.05521 21403 ft 437 kts 171°
2026-04-21 15:17 -40.42224 -73.04783 20927 ft 433 kts 171°
2026-04-21 15:17 -40.45204 -73.04039 20478 ft 429 kts 171°
2026-04-21 15:17 -40.48076 -73.03323 20023 ft 425 kts 171°
2026-04-21 15:17 -40.50990 -73.02594 19574 ft 420 kts 171°
2026-04-21 15:18 -40.53833 -73.01882 19170 ft 415 kts 171°
2026-04-21 15:18 -40.56667 -73.01173 18710 ft 412 kts 171°
2026-04-21 15:18 -40.59451 -73.00474 18258 ft 408 kts 171°
2026-04-21 15:18 -40.62235 -72.99777 17806 ft 404 kts 171°
2026-04-21 15:19 -40.64971 -72.99090 17398 ft 401 kts 171°
2026-04-21 15:19 -40.67712 -72.98400 17013 ft 399 kts 171°
2026-04-21 15:19 -40.70426 -72.97717 16594 ft 398 kts 171°
2026-04-21 15:19 -40.73138 -72.97035 16161 ft 396 kts 171°
2026-04-21 15:20 -40.75822 -72.96359 15735 ft 391 kts 171°
2026-04-21 15:20 -40.78466 -72.95692 15308 ft 388 kts 171°
2026-04-21 15:20 -40.81115 -72.95023 14899 ft 386 kts 171°
2026-04-21 15:20 -40.83746 -72.94359 14462 ft 383 kts 171°
2026-04-21 15:21 -40.86377 -72.93694 14065 ft 380 kts 171°
2026-04-21 15:21 -40.88966 -72.93038 13660 ft 378 kts 171°
2026-04-21 15:21 -40.91523 -72.92391 13242 ft 376 kts 171°
2026-04-21 15:21 -40.94107 -72.91793 12858 ft 372 kts 176°
2026-04-21 15:22 -40.96632 -72.91845 12532 ft 367 kts 188°
2026-04-21 15:22 -40.99194 -72.92168 12183 ft 369 kts 186°
2026-04-21 15:22 -41.01760 -72.92471 11810 ft 368 kts 187°
2026-04-21 15:22 -41.04283 -72.92775 11388 ft 362 kts 187°
2026-04-21 15:23 -41.06767 -72.93082 11077 ft 359 kts 187°
2026-04-21 15:23 -41.09240 -72.93387 10780 ft 359 kts 187°
2026-04-21 15:23 -41.11734 -72.93697 10342 ft 360 kts 187°
2026-04-21 15:23 -41.14199 -72.94003 10147 ft 346 kts 187°
2026-04-21 15:24 -41.16536 -72.94292 10136 ft 329 kts 188°
2026-04-21 15:24 -41.18752 -72.94567 10136 ft 313 kts 188°
2026-04-21 15:24 -41.20888 -72.94833 10125 ft 298 kts 188°
2026-04-21 15:24 -41.22900 -72.95084 10134 ft 288 kts 189°
2026-04-21 15:25 -41.24873 -72.95333 10152 ft 286 kts 188°
2026-04-21 15:25 -41.26884 -72.95529 9907 ft 299 kts 184°
2026-04-21 15:25 -41.28980 -72.95590 9539 ft 299 kts 184°
2026-04-21 15:25 -41.31067 -72.95664 9186 ft 297 kts 184°
2026-04-21 15:26 -41.33102 -72.95732 8831 ft 288 kts 184°
2026-04-21 15:26 -41.35068 -72.95798 8518 ft 279 kts 184°
2026-04-21 15:26 -41.36990 -72.95863 8290 ft 278 kts 184°
2026-04-21 15:26 -41.38938 -72.95929 8007 ft 281 kts 184°
2026-04-21 15:27 -41.40902 -72.95994 7720 ft 279 kts 184°
2026-04-21 15:27 -41.42825 -72.96059 7433 ft 278 kts 184°
2026-04-21 15:27 -41.44768 -72.96124 7154 ft 276 kts 184°
2026-04-21 15:27 -41.46677 -72.96188 6874 ft 274 kts 184°
2026-04-21 15:28 -41.48581 -72.96252 6585 ft 273 kts 184°
2026-04-21 15:28 -41.50474 -72.96315 6284 ft 270 kts 184°
2026-04-21 15:28 -41.52343 -72.96378 6004 ft 271 kts 184°
2026-04-21 15:28 -41.54243 -72.96442 5685 ft 272 kts 183°
2026-04-21 15:29 -41.56136 -72.96506 5413 ft 270 kts 183°
2026-04-21 15:29 -41.58010 -72.96581 5145 ft 267 kts 187°
2026-04-21 15:29 -41.59738 -72.97290 4979 ft 259 kts 216°
2026-04-21 15:29 -41.61004 -72.98999 4567 ft 262 kts 245°
2026-04-21 15:30 -41.61507 -73.01299 4126 ft 257 kts 268°
2026-04-21 15:30 -41.61595 -73.03641 3723 ft 250 kts 270°
2026-04-21 15:30 -41.61610 -73.05947 3482 ft 245 kts 280°
2026-04-21 15:30 -41.61041 -73.08004 3142 ft 233 kts 312°
2026-04-21 15:31 -41.59821 -73.09206 3004 ft 214 kts 341°
2026-04-21 15:31 -41.58433 -73.09792 2825 ft 203 kts 353°
2026-04-21 15:31 -41.57056 -73.09830 2659 ft 193 kts
2026-04-21 15:31 -41.55749 -73.09802 2478 ft 182 kts
2026-04-21 15:32 -41.54536 -73.09775 2215 ft 171 kts
2026-04-21 15:32 -41.53381 -73.09740 1997 ft 159 kts
2026-04-21 15:32 -41.52329 -73.09705 1736 ft 143 kts
2026-04-21 15:32 -41.51385 -73.09673 1556 ft 124 kts
2026-04-21 15:33 -41.50532 -73.09643 1426 ft 125 kts
2026-04-21 15:33 -41.49651 -73.09611 1267 ft 128 kts
2026-04-21 15:33 -41.48755 -73.09579 1060 ft 128 kts
2026-04-21 15:33 -41.47882 -73.09540 874 ft 126 kts
2026-04-21 15:34 -41.46998 -73.09473 699 ft 130 kts
2026-04-21 15:34 -41.46102 -73.09445 516 ft 129 kts 359°
2026-04-21 15:34 -41.45155 -73.09439 364 ft 135 kts
2026-04-21 15:34 -41.44221 -73.09412 290 ft 115 kts 358°
2026-04-21 15:35 -41.43703 -73.09402 287 ft 48 kts
2026-04-21 15:35 -41.43482 -73.09393 286 ft 16 kts
2026-04-21 15:35 -41.43359 -73.09389 284 ft 19 kts
2026-04-21 15:35 -41.43215 -73.09384 283 ft 21 kts
2026-04-21 15:36 -41.43067 -73.09379 282 ft 22 kts
2026-04-21 15:36 -41.42908 -73.09363 280 ft 23 kts
2026-04-21 15:36 -41.42754 -73.09357 280 ft 15 kts 354°
2026-04-21 15:36 -41.42707 -73.09431 278 ft 11 kts 275°
2026-04-21 15:37 -41.42703 -73.09518 278 ft 8 kts 270°
2026-04-21 15:37 -41.42722 -73.09576 278 ft 5 kts 213°
2026-04-21 15:37 -41.42761 -73.09588 279 ft 6 kts 189°
2026-04-21 15:37 -41.42812 -73.09588 279 ft 8 kts 179°
2026-04-21 15:38 -41.42876 -73.09588 279 ft 10 kts 180°
2026-04-21 15:38 -41.42950 -73.09590 279 ft 11 kts 182°
2026-04-21 15:38 -41.43028 -73.09596 280 ft 11 kts 183°
2026-04-21 15:38 -41.43116 -73.09601 280 ft 13 kts 180°
2026-04-21 15:39 -41.43212 -73.09604 281 ft 11 kts 181°
2026-04-21 15:39 -41.43266 -73.09606 282 ft 0 kts 184°
2026-04-21 15:39 -41.43274 -73.09609 283 ft 3 kts 193°
2026-04-21 15:39 -41.43293 -73.09633 283 ft 3 kts 251°
2026-04-21 15:40 -41.43289 -73.09663 283 ft 4 kts 287°
2026-04-21 15:40 -41.43288 -73.09695 283 ft 4 kts 264°
2026-04-21 15:40 -41.43289 -73.09732 282 ft 4 kts 273°
2026-04-21 15:40 -41.43289 -73.09749 282 ft 0 kts 271°
2026-04-21 15:41 -41.43289 -73.09747 282 ft 0 kts 271°
2026-04-21 15:41 -41.43289 -73.09743 282 ft 0 kts 271°
2026-04-21 15:42 -41.43289 -73.09742 282 ft 0 kts 271°